Content
SEND FEEDBACK

Daily
Averages
Monthly
Summary
United States of America

CLARKSBURG, WEST VIRGINIA


Home > North America > United States > West Virginia
Elevation: 1209 feet     Latitude: 39 17N     Longitude: 080 13W

WEATHER
 
SELECT A DAY
Number of Records: 203,427;   Date Range: 1/1/95 - 9/30/14
 
SHARE

PRINT THIS DATA

[ ← Previous Day ]
WEATHER ALMANAC - AUGUST 8, 2014
[ Next Day → ]
[ °C ]   °F
Weather ElementAverageHighLow
Temperature67.8 °F78.1 °F (2:53 pm)55.9 °F (6:53 am)
Dewpoint59.8 °F66.9 °F (4:53 pm)54 °F (6:53 am)
Humidity77.2 %96 % (12:53 am)56 % (2:16 pm)
Barometer30.07 in30.11 in (7:53 am)30.03 in (10:49 pm)
Wind Speed1.1 mph5.8 mph (8:53 am)
Weather ElementAverage
Visibility8.2 mi
Wind DirectionNNE (11.3 °)

Weather ElementTotal
Precipitation---
Cooling Degree Days2 (Base 65)
Growing Degree Days17 (Base 50)
Averaged from 24 records on August 8, 2014
WEATHER CONDITIONS BREAKOUT
WIND DIRECTION BREAKOUT
WEATHER BY HOUR - AUGUST 8, 2014
[ °C ]   °F
Local TimeTemperatureDewpointHumidityBarometerVisibilityWind DirectionWind SpeedGust SpeedPrecipitationEventsConditions
12:53 AM57.0 °F55.9 °F96 %30.08 in6.0 miCalmClear
1:53 AM57.9 °F55.0 °F90 %30.09 in7.0 miCalmClear
2:53 AM57.9 °F55.9 °F93 %30.08 in5.0 miCalmClear
3:53 AM57.0 °F55.0 °F93 %30.08 in6.0 miCalmClear
4:53 AM57.0 °F55.0 °F93 %30.08 in7.0 miCalmPartly Cloudy
5:53 AM57.0 °F55.0 °F93 %30.09 in8.0 miCalmClear
6:53 AM55.9 °F54.0 °F93 %30.10 in7.0 miCalmClear
7:53 AM60.1 °F55.9 °F86 %30.11 in8.0 miCalmClear
8:53 AM63.0 °F57.9 °F84 %30.11 in10.0 miENE (60°)3.5 mphClear
9:53 AM69.1 °F59.0 °F70 %30.10 in10.0 miCalmClear
10:53 AM72.0 °F57.9 °F61 %30.09 in10.0 miVariable5.8 mphPartly Cloudy
11:53 AM75.0 °F61.0 °F62 %30.09 in10.0 miVariable3.5 mphMostly Cloudy
12:53 PM75.0 °F60.1 °F60 %30.09 in10.0 miCalmOvercast
1:53 PM77.0 °F61.0 °F58 %30.07 in10.0 miVariable3.5 mphMostly Cloudy
2:53 PM78.1 °F61.0 °F56 %30.06 in10.0 miCalmMostly Cloudy
3:53 PM78.1 °F62.1 °F58 %30.04 in10.0 miVariable3.5 mphScattered Clouds
4:53 PM77.0 °F62.1 °F60 %30.04 in10.0 miVariable3.5 mphPartly Cloudy
5:53 PM77.0 °F64.0 °F64 %30.03 in10.0 miSSW (210°)3.5 mphClear
6:53 PM77.0 °F63.0 °F62 %30.03 in9.0 miCalmClear
7:53 PM75.0 °F66.9 °F76 %30.03 in8.0 miCalmClear
8:53 PM72.0 °F64.9 °F78 %30.04 in9.0 miCalmClear
9:53 PM69.1 °F64.0 °F84 %30.05 in7.0 miCalmClear
10:53 PM68.0 °F64.9 °F90 %30.06 in6.0 miCalmMostly Cloudy
11:53 PM66.0 °F64.0 °F93 %30.05 in4.0 miCalmPartly Cloudy
Hourly data recorded from KCKB, located miles away from Clarksburg, West Virginia







STORIES FROM OUR PARTNERS